La Grande, OR

12:51 AM PDT on April 28, 2017 (GMT -0700)
La Grande-Union County

Weather History for KLGD - November, 2013

Change the Weather History Date:

Thursday, November 21, 2013

  Actual Average Record
Temperature  
Mean Temperature 29 °F -  
Max Temperature 37 °F 43 °F 64 °F (1966)
Min Temperature 21 °F 29 °F 5 °F (1985)
Degree Days  
Heating Degree Days 36    
Moisture  
Dew Point 7 °F    
Average Humidity 42    
Maximum Humidity 54    
Minimum Humidity 33    
Precipitation  
Precipitation 0.00 in - - ()
Sea Level Pressure  
Sea Level Pressure 30.46 in    
Wind  
Wind Speed 13 mph (NNW)    
Max Wind Speed 20 mph    
Max Gust Speed 23 mph    
Visibility 10 miles    
Events      
Averages and records for this station are not official NWS values.
T = Trace of Precipitation, MM = Missing Value Source: NWS Daily Summary

Daily Weather History Graph

Daily Weather History Graph

Search for Another Location

Airport or City:

Trip Planner

Search our weather history database for the weather conditions in past years. The results will help you decide how hot, cold, wet, or windy it might be!

Date:

Astronomy

Nov. 21, 2013 Rise Set
Actual Time 6:59 AM PST 4:16 PM PST
Civil Twilight 6:26 AM PST 4:49 PM PST
Nautical Twilight 5:50 AM PST 5:25 PM PST
Astronomical Twilight 5:15 AM PST 6:00 PM PST
Moon 7:59 PM PST (11/21) 10:07 AM PST (11/21)
Length of Visible Light 10h 22m
Length of Day
9h 17m
Waning Gibbous, 84% of the Moon is Illuminated
Nov 21
Waning Gibbous
Nov 25
Last Quarter
Dec 2
New
Dec 9
First Quarter
Dec 17
Full

Hourly Weather History & Observations

Time (PST) Temp. Windchill Dew Point Humidity Pressure Visibility Wind Dir Wind Speed Gust Speed Precip Events Conditions
12:15 AM 23.0 °F 9.6 °F 3.2 °F 43% 30.30 in 10.0 mi NW 16.1 mph - N/A   Clear
12:35 AM 23.0 °F 9.2 °F 3.2 °F 43% 30.30 in 10.0 mi NW 17.3 mph - N/A   Clear
12:55 AM 24.8 °F 11.5 °F 3.2 °F 40% 30.31 in 10.0 mi NW 17.3 mph 23.0 mph N/A   Clear
1:15 AM 23.0 °F 9.6 °F 1.4 °F 39% 30.32 in 10.0 mi NW 16.1 mph 20.7 mph N/A   Clear
1:35 AM 23.0 °F 10.1 °F 3.2 °F 43% 30.33 in 10.0 mi NNW 15.0 mph - N/A   Clear
1:55 AM 21.2 °F 7.3 °F 3.2 °F 46% 30.33 in 10.0 mi NW 16.1 mph - N/A   Clear
2:15 AM 21.2 °F 7.3 °F 5.0 °F 50% 30.34 in 10.0 mi NW 16.1 mph - N/A   Clear
2:35 AM 23.0 °F 9.6 °F 5.0 °F 46% 30.34 in 10.0 mi NW 16.1 mph - N/A   Clear
2:55 AM 23.0 °F 8.7 °F 3.2 °F 43% 30.34 in 10.0 mi NW 18.4 mph - N/A   Clear
3:15 AM 24.8 °F 10.7 °F 3.2 °F 40% 30.34 in 10.0 mi NW 19.6 mph - N/A   Clear
3:35 AM 23.0 °F 9.2 °F 3.2 °F 43% 30.35 in 10.0 mi NW 17.3 mph - N/A   Clear
3:55 AM 24.8 °F 11.1 °F 3.2 °F 40% 30.35 in 10.0 mi WNW 18.4 mph 21.9 mph N/A   Clear
4:15 AM 24.8 °F 10.7 °F 3.2 °F 40% 30.36 in 10.0 mi NW 19.6 mph - N/A   Clear
4:35 AM 24.8 °F 12.4 °F 3.2 °F 40% 30.37 in 10.0 mi NW 15.0 mph - N/A   Clear
4:55 AM 24.8 °F 14.0 °F 1.4 °F 36% 30.38 in 10.0 mi WNW 11.5 mph - N/A   Clear
5:15 AM 24.8 °F 12.4 °F 3.2 °F 40% 30.38 in 10.0 mi NW 15.0 mph - N/A   Clear
5:35 AM 24.8 °F 12.9 °F 3.2 °F 40% 30.39 in 10.0 mi NNW 13.8 mph 20.7 mph N/A   Clear
5:55 AM 24.8 °F 11.9 °F 3.2 °F 40% 30.40 in 10.0 mi NW 16.1 mph - N/A   Clear
6:15 AM 24.8 °F 12.4 °F 3.2 °F 40% 30.41 in 10.0 mi NW 15.0 mph 21.9 mph N/A   Clear
6:35 AM 24.8 °F 13.4 °F 3.2 °F 40% 30.42 in 10.0 mi NNW 12.7 mph 20.7 mph N/A   Clear
6:55 AM 24.8 °F 12.4 °F 3.2 °F 40% 30.42 in 10.0 mi NW 15.0 mph - N/A   Clear
7:15 AM 23.0 °F 10.1 °F 3.2 °F 43% 30.43 in 10.0 mi NNW 15.0 mph - N/A   Clear
7:35 AM 23.0 °F 10.6 °F 3.2 °F 43% 30.44 in 10.0 mi NNW 13.8 mph - N/A   Clear
7:55 AM 24.8 °F 14.6 °F 5.0 °F 43% 30.44 in 10.0 mi NW 10.4 mph - N/A   Clear
8:15 AM 26.6 °F 19.1 °F 6.8 °F 43% 30.45 in 10.0 mi NW 6.9 mph - N/A   Clear
8:35 AM 26.6 °F 19.1 °F 6.8 °F 43% 30.46 in 10.0 mi ESE 6.9 mph - N/A   Clear
8:55 AM 26.6 °F - 6.8 °F 43% 30.47 in 10.0 mi Calm Calm - N/A   Clear
9:15 AM 28.4 °F 24.6 °F 8.6 °F 43% 30.48 in 10.0 mi East 3.5 mph - N/A   Clear
9:35 AM 30.2 °F 26.7 °F 8.6 °F 40% 30.49 in 10.0 mi NNE 3.5 mph - N/A   Clear
9:55 AM 32.0 °F 24.2 °F 10.4 °F 41% 30.49 in 10.0 mi NE 9.2 mph - N/A   Clear
10:15 AM 33.8 °F 26.4 °F 10.4 °F 38% 30.49 in 10.0 mi NE 9.2 mph - N/A   Clear
10:35 AM 32.0 °F 26.4 °F 8.6 °F 38% 30.48 in 10.0 mi NNE 5.8 mph - N/A   Clear
10:55 AM 35.6 °F 25.9 °F 10.4 °F 35% 30.48 in 10.0 mi NNE 16.1 mph 20.7 mph N/A   Clear
11:15 AM 35.6 °F 25.9 °F 10.4 °F 35% 30.47 in 10.0 mi North 16.1 mph 19.6 mph N/A   Clear
11:35 AM 35.6 °F 25.9 °F 10.4 °F 35% 30.47 in 10.0 mi North 16.1 mph 23.0 mph N/A   Clear
11:55 AM 37.4 °F 28.9 °F 10.4 °F 33% 30.46 in 10.0 mi North 13.8 mph 20.7 mph N/A   Clear
12:15 PM 37.4 °F 28.2 °F 10.4 °F 33% 30.47 in 10.0 mi North 16.1 mph 20.7 mph N/A   Clear
12:35 PM 37.4 °F 28.9 °F 10.4 °F 33% 30.47 in 10.0 mi North 13.8 mph 19.6 mph N/A   Clear
12:55 PM 37.4 °F 28.2 °F 10.4 °F 33% 30.47 in 10.0 mi North 16.1 mph - N/A   Clear
1:15 PM 37.4 °F 29.3 °F 10.4 °F 33% 30.47 in 10.0 mi North 12.7 mph - N/A   Clear
1:35 PM 37.4 °F 29.8 °F 10.4 °F 33% 30.47 in 10.0 mi North 11.5 mph - N/A   Clear
1:55 PM 37.4 °F 29.8 °F 10.4 °F 33% 30.47 in 10.0 mi North 11.5 mph - N/A   Clear
2:15 PM 37.4 °F 29.3 °F 10.4 °F 33% 30.47 in 10.0 mi North 12.7 mph - N/A   Clear
2:35 PM 37.4 °F 30.8 °F 10.4 °F 33% 30.48 in 10.0 mi North 9.2 mph - N/A   Clear
2:55 PM 37.4 °F 30.3 °F 10.4 °F 33% 30.47 in 10.0 mi North 10.4 mph - N/A   Clear
3:15 PM 37.4 °F 30.8 °F 10.4 °F 33% 30.47 in 10.0 mi North 9.2 mph - N/A   Clear
3:35 PM 37.4 °F 31.4 °F 10.4 °F 33% 30.48 in 10.0 mi North 8.1 mph - N/A   Clear
3:55 PM 33.8 °F 27.7 °F 8.6 °F 35% 30.49 in 10.0 mi NNW 6.9 mph - N/A   Clear
4:15 PM 33.8 °F 29.6 °F 10.4 °F 38% 30.49 in 10.0 mi NW 4.6 mph - N/A   Clear
4:35 PM 30.2 °F 25.4 °F 8.6 °F 40% 30.49 in 10.0 mi NW 4.6 mph - N/A   Clear
4:55 PM 32.0 °F 24.2 °F 8.6 °F 38% 30.50 in 10.0 mi NW 9.2 mph - N/A   Clear
5:15 PM 32.0 °F 24.2 °F 10.4 °F 41% 30.50 in 10.0 mi NW 9.2 mph - N/A   Clear
5:35 PM 30.2 °F 23.4 °F 8.6 °F 40% 30.51 in 10.0 mi NNW 6.9 mph - N/A   Clear
5:55 PM 30.2 °F 22.6 °F 10.4 °F 44% 30.52 in 10.0 mi NNW 8.1 mph 16.1 mph N/A   Clear
6:15 PM 30.2 °F 22.6 °F 8.6 °F 40% 30.52 in 10.0 mi NW 8.1 mph - N/A   Clear
6:35 PM 28.4 °F 19.7 °F 8.6 °F 43% 30.53 in 10.0 mi WNW 9.2 mph - N/A   Clear
6:55 PM 28.4 °F 19.7 °F 8.6 °F 43% 30.53 in 10.0 mi NW 9.2 mph - N/A   Clear
7:15 PM 26.6 °F 17.5 °F 8.6 °F 47% 30.54 in 10.0 mi NW 9.2 mph - N/A   Clear
7:35 PM 26.6 °F 19.1 °F 8.6 °F 47% 30.55 in 10.0 mi North 6.9 mph - N/A   Clear
7:55 PM 26.6 °F 21.2 °F 8.6 °F 47% 30.55 in 10.0 mi North 4.6 mph - N/A   Clear
8:15 PM 24.8 °F 19.1 °F 8.6 °F 50% 30.55 in 10.0 mi North 4.6 mph - N/A   Clear
8:35 PM 24.8 °F 17.9 °F 8.6 °F 50% 30.56 in 10.0 mi WNW 5.8 mph - N/A   Clear
8:55 PM 24.8 °F 20.5 °F 8.6 °F 50% 30.56 in 10.0 mi NW 3.5 mph - N/A   Clear
9:15 PM 23.0 °F 14.7 °F 6.8 °F 50% 30.57 in 10.0 mi NNW 6.9 mph - N/A   Clear
9:35 PM 24.8 °F 20.5 °F 8.6 °F 50% 30.58 in 10.0 mi NNW 3.5 mph - N/A   Clear
9:55 PM 23.0 °F 17.0 °F 8.6 °F 54% 30.58 in 10.0 mi NNW 4.6 mph - N/A   Clear
10:15 PM 23.0 °F 18.4 °F 6.8 °F 50% 30.59 in 10.0 mi NW 3.5 mph - N/A   Clear
10:35 PM 23.0 °F 18.4 °F 8.6 °F 54% 30.59 in 10.0 mi WNW 3.5 mph - N/A   Clear
10:55 PM 21.2 °F 16.4 °F 6.8 °F 54% 30.59 in 10.0 mi West 3.5 mph - N/A   Clear
11:15 PM 21.2 °F 16.4 °F 6.8 °F 54% 30.58 in 10.0 mi West 3.5 mph - N/A   Clear
11:35 PM 21.2 °F 13.6 °F 6.8 °F 54% 30.59 in 10.0 mi WNW 5.8 mph - N/A   Clear
11:55 PM 21.2 °F - 6.8 °F 54% 30.58 in 10.0 mi Calm Calm - N/A   Clear